Preview of NWS' New Version of Forecast
This preview is not operational and should not be used for support decisions.
Latest weather observations around

Anniston Metro Airport (KANB)

Using International System of Units (Switch to English Units)
Date/ Time (CST) Wind (kph) Vis. (km) Weather Sky Cond. Temp (°C) Rel. Humidity Wind Chill (°C) Heat Index (°C) Pressure Precip. (cm)
Air Dwpt 6 hour Altimeter (hPa) Sea level (hPa) 1 hr 3 hr 6 hr
Max Min
Jan 21 21:53 ENE 15 16.09 Clear CLR 1 -9     45% -3   1028.8 1030.1      
Jan 21 20:53 ENE 9 16.09 Clear CLR 1 -11     41% -2   1029.1 1030.3      
Jan 21 19:53 ENE 11 16.09 Clear CLR 2 -10     42% -2   1029.1 1030.4      
Jan 21 18:53 ENE 9 16.09 Clear CLR 2 -7     54% -1   1028.8 1030.2      
Jan 21 17:53 ENE 5 16.09 Clear CLR 3 -11     35% 2   1029.1 1030.2      
Jan 21 16:53 NE 8 16.09 Clear CLR 6 -12     26% 4   1029.1 1030.2      
Jan 21 15:53 E 5 16.09 Clear CLR 6 -12     26% 5   1029.1 1030.2      
Jan 21 14:53 5 16.09 Clear CLR 6 -12     26% 5   1028.8 1029.9      
Jan 21 13:53 5 16.09 Clear CLR 6 -12     28% 5   1029.5 1030.5      
Jan 21 12:53 NNE 11 16.09 Clear CLR 4 -13     27% 1   1030.1 1031.4      
Jan 21 11:53 11 16.09 Clear CLR 2 -13     31% -1   1031.2 1032.3      
Jan 21 10:53 9 16.09 Clear CLR 1 -14     33% -2   1031.8 1033.3      
Jan 21 09:53 N 13 16.09 Clear CLR -1 -12     43% -5   1031.8 1033.3      
Jan 21 08:53 NNE 18 16.09 Clear CLR -3 -13     46% -8   1031.5 1032.9      
Jan 21 07:53 NNE 17 16.09 Clear CLR -3 -12     50% -9   1030.5 1032      
Jan 21 06:53 NNE 8 16.09 Clear CLR -4 -11     60% -8   1029.1 1030.6      
Jan 21 05:53 N 9 16.09 Clear CLR -4 -12     55% -8   1028.1 1029.6      
Jan 21 04:53 N 9 16.09 Clear CLR -4 -9     66% -8   1027.1 1028.5      
Jan 21 03:53 NNE 9 16.09 Clear CLR -3 -8     68% -7   1026.4 1027.8      
Jan 21 02:53 8 16.09 Clear CLR -3 -8     68% -6   1026.4 1027.6      
Jan 21 01:53 NE 5 16.09 Clear CLR -3 -9     63% -5   1026.1 1027.3      
Jan 21 00:53 N 8 16.09 Clear CLR -3 -9     63% -6   1025.7 1027      
Jan 20 23:53 Calm 16.09 Clear CLR -2 -8     63%     1025.7 1026.8      
Jan 20 22:53 9 16.09 Clear CLR -2 -8     63% -5   1025.4 1026.5      
Jan 20 21:53 Calm 16.09 Clear CLR -1 -8     60%     1025.4 1026.5      
Jan 20 20:53 Calm 16.09 Clear CLR -1 -8     60%     1025.1 1026.2      
Jan 20 19:53 Calm 16.09 Clear CLR -1 -7     61%     1024.4 1025.7      
Jan 20 18:53 Calm 16.09 Clear CLR 0 -7     58%     1024.4 1025.6      
Jan 20 17:53 11 16.09 Clear CLR 1 -7     56% -3   1023.4 1024.6      
Jan 20 16:53 WNW 8 16.09 Clear CLR 1 -7     54% -1   1022.4 1023.5      
Jan 20 15:53 NNW 17 16.09 Clear CLR 2 -6     54% -2   1021.7 1022.9      
Jan 20 14:53 NNW 13 16.09 Partly Cloudy SCT035 3 -6     52% -1   1021 1021.9      
Jan 20 13:53 NW 17 16.09 Cloudy OVC033 2 -5     59% -2   1020.7 1021.5      
Jan 20 12:53 NW 15 16.09 Cloudy OVC031 3 -5     56% -1   1019.7 1020.5      
Jan 20 11:53 NW 17 16.09 Cloudy OVC033 2 -6     58% -3   1020 1021.1      
Jan 20 11:12 WNW 18 16.09 Cloudy OVC031 1 -6     61% -4   1020.7        
Jan 20 10:53 W 26 16.09 Cloudy OVC029 1 -5     64% -5   1020.7 1021.4      
Jan 20 09:53 N 21 16.09 Cloudy OVC025 1 -4     69% -5   1020 1020.9      
Jan 20 08:53 WNW 15 16.09 Cloudy OVC024 1 -3     72% -3   1018.6 1019.2      
Jan 20 07:53 NW 15 16.09 Cloudy OVC022 1 -4     69% -3   1017.3 1017.7      
Jan 20 06:53 WNW 18 16.09 Cloudy OVC019 1 -3     72% -4   1016.3 1016.7      
Jan 20 05:53   16.09 Cloudy OVC025 1 -4     69%     1014.9 1015.6     0
Jan 20 04:53 WNW 24 16.09 Cloudy OVC024 1 -4     69% -4   1013.2 1013.6      
Jan 20 03:53 WNW 17 16.09 Cloudy OVC023 1 -4     69% -3   1012.9 1013.2      
Jan 20 02:53 NW 18 16.09 Cloudy OVC022 1 -3     72% -4   1012.2 1012.5   0  
Jan 20 01:53 W 24 16.09 Cloudy OVC020 2 -3     72% -4   1010.8 1011.2      
Jan 20 00:53 W 17 16.09 Cloudy BKN020 OVC026 2 -2     75% -2   1009.8 1010 0    
Jan 19 23:53 W 24 14.48 Light Rain SCT017 BKN025 OVC035 3 1     82% -2   1008.5 1008.9 0   0
Jan 19 22:53 WNW 28 16.09 Cloudy FEW018 BKN023 OVC030 6 1     70% 2   1007.5 1007.5 0    
Jan 19 22:28 WNW 18 16.09 Cloudy SCT013 OVC019 7 4     82% 3   1006.8   0    
Jan 19 22:17 W 24 14.48 Light Rain BKN013 OVC021 7 5     86% 3   1006.4   0    
Jan 19 21:53 W 30 16.09 Cloudy BKN018 OVC026 8 5     80% 4   1005.8 1006      
Jan 19 20:53 W 26 16.09 Cloudy BKN020 OVC027 11 8     80%     1004.4 1004.3   0  
Jan 19 20:48 W 28 16.09 Cloudy SCT020 BKN029 OVC034 11 8     82%     1004.1        
Jan 19 20:00 W 22 16.09 Cloudy SCT019 OVC050 13 11     86%     1003.1        
Jan 19 19:53 W 22 16.09 Cloudy SCT019 BKN025 OVC050 13 11     89%     1003.1 1002.9 0    
Jan 19 19:41 W 21 16.09 Cloudy FEW006 BKN017 OVC050 13 11     87%     1002.7   0    
Jan 19 19:20 WNW 13 8.05 Light Rain and Fog/Mist SCT005 OVC013 13 12     93%     1002.4   0    
Jan 19 19:13 W 11 8.05 Light Rain and Fog/Mist OVC013 13 12     93%     1002   0    
Jan 19 18:53 SW 15 16.09 Cloudy OVC016 13 12     90%     1002 1001.8      
Jan 19 17:53 SW 13 16.09 Cloudy BKN018 OVC023 13 12     93%     1001.4 1001.3     2
Jan 19 17:13 SW 13 16.09 Mostly Cloudy BKN020 BKN120 14 12     89%     1000.7        
Jan 19 16:53 WSW 17 16.09 Mostly Cloudy FEW020 BKN100 14 13     93%     1000.7 1000.5 0    
Jan 19 16:19 SW 11 9.66 Light Rain and Fog/Mist FEW026 BKN036 OVC090 14 13     96%     1001   0    
Jan 19 16:00 WSW 13 3.22 Rain and Fog/Mist FEW027 OVC035 14 13     93%     1001   0    
Jan 19 15:53 SW 15 4.83 Light Rain and Fog/Mist FEW029 BKN037 OVC047 14 13     93%     1001.4 1001.5 1    
Jan 19 15:41 SW 11 4.02 Rain and Fog/Mist FEW029 BKN039 OVC050 14 13     93%     1001   1    
Jan 19 15:34 WSW 11 4.83 Rain and Fog/Mist FEW021 BKN040 OVC055 14 13     93%     1001   1    
Jan 19 15:23 WSW 15 3.22 Rain and Fog/Mist FEW018 BKN033 OVC070 14 13     93%     1001.4   0    
Jan 19 15:11   2.82 Heavy Rain and Fog/Mist FEW010 BKN025 OVC070 16 14     90%     1001.7   0    
Jan 19 14:53 SSW 11 6.44 Rain and Fog/Mist SCT020 BKN026 OVC090 17 15     90%     1001 1001.1 1 1  
Jan 19 13:53 S 22 11.27 Light Rain FEW027 BKN055 OVC095 17 15     87%     1001.7 1001.3 0    
Jan 19 12:53 S 21 16.09 Light Rain FEW060 BKN075 OVC090 18 14     78%     1002.7 1002.6 0    
Jan 19 11:53 S 22 16.09 Cloudy FEW025 BKN044 OVC070 18 14     81%     1005.4 1005.1 0   1
Jan 19 11:00 S 17 9.66 Light Rain FEW021 BKN043 OVC080 17 14     84%     1006.8   0    
Jan 19 10:53 S 18 4.02 Light Rain and Fog/Mist FEW021 BKN041 OVC049 17 15     90%     1007.1 1007.1 0    
Jan 19 09:53 S 15 9.66 Light Rain and Fog/Mist FEW018 BKN038 OVC070 16 14     87%     1008.8 1008.8 0    
Jan 19 09:08 11 16.09 Light Rain SCT015 SCT046 OVC085 16 14     87%     1009.5   0    
Jan 19 08:53 S 11 12.87 Light Rain BKN016 BKN040 OVC090 16 13     86%     1009.5 1009.6 0 0  
Jan 19 08:50 SSW 11 11.27 Light Rain BKN016 BKN040 OVC095 16 13     82%     1009.8   0    
Jan 19 08:43 S 13 12.87 Light Rain BKN014 BKN065 OVC095 16 13     86%     1009.8   0    
Jan 19 08:01 8 16.09 Cloudy BKN019 BKN032 OVC047 15 13     90%     1009.8        
Jan 19 07:53 SSW 13 16.09 Cloudy SCT021 BKN034 OVC050 15 13     90%     1009.8 1010 0    
Jan 19 07:39 8 8.05 Light Rain and Fog/Mist SCT014 BKN033 OVC060 15 13     87%     1009.8   0    
Jan 19 07:24 SSE 8 16.09 Cloudy BKN014 BKN020 OVC060 15 13     87%     1010.2        
Jan 19 07:00 SSE 15 16.09 Cloudy SCT012 OVC020 14 13     90%     1010.2        
Jan 19 06:53 9 16.09 Cloudy BKN012 OVC022 14 12     89%     1010.5 1010.6 0    
Jan 19 05:53 NE 9 6.44 Rain and Fog/Mist OVC010 13 12     93%     1010.5 1010.6 0   0
Jan 19 05:36 E 8 8.05 Rain and Fog/Mist BKN008 OVC015 13 12     93%     1010.8   0    
Jan 19 04:53 E 11 16.09 Mostly Cloudy BKN017 BKN060 BKN080 13 11     87%     1010.8 1010.9      
Jan 19 04:25 E 11 16.09 Partly Cloudy FEW009 FEW016 SCT032 13 11     89%     1011.5        
Jan 19 04:18 ESE 11 16.09 Mostly Cloudy SCT008 BKN018 BKN033 13 11     89%     1011.5        
Jan 19 03:53 E 13 16.09 Mostly Cloudy BKN008 12 11     93%     1011.5 1011.5      
Jan 19 03:17 ENE 11 16.09 Mostly Cloudy BKN009 BKN048 12 11     93%     1012.9        
Jan 19 03:06 ENE 13 16.09 Mostly Cloudy SCT009 SCT017 BKN048 12 11     93%     1013.2        
Jan 19 02:53 ENE 11 16.09 Mostly Cloudy FEW009 BKN015 12 11     93%     1013.6 1013.6      
Jan 19 02:51 ENE 11 16.09 Mostly Cloudy FEW009 BKN015 12 11     94%     1013.6        
Jan 19 01:53 ENE 9 14.48 Mostly Cloudy BKN016 12 11     93%     1014.9 1015      
Jan 19 00:53 E 5 14.48 Cloudy SCT014 OVC024 12 11     93%     1015.6 1015.6      
Jan 19 00:49 Calm 14.48 Cloudy SCT014 OVC024 12 11     94%     1015.6        
Jan 19 00:37 Calm 16.09 Mostly Cloudy BKN012 BKN020 12 11     90%     1015.9        
Jan 18 23:53 5 16.09 Mostly Clear FEW017 12 11     90%     1015.9 1015.9      
Jan 18 23:43 E 9 16.09 Partly Cloudy FEW018 SCT025 12 11     93%     1015.6        
Jan 18 23:19 ENE 8 16.09 Mostly Cloudy FEW011 SCT018 BKN025 11 10     93%     1016.3        
Jan 18 22:53 NE 11 16.09 Partly Cloudy SCT011 11 9     89%     1016.3 1016.4      
May 14 23:53 Calm 16.09 Clear CLR 23 20     84%   23 1015.2 1014      
May 14 10:53 N 11 16.09 Mostly Clear FEW055 31 17     43%   32 1017.6 1016.7      
May 13 07:53 E 5 16.09 Clear CLR 19 17     84%     1021.3 1020.6      
May 13 01:53 Calm 16.09 Clear CLR 17 16     90%     1018.6 1017.8      
May 12 13:53 11 16.09 Clear CLR 32 13     33%   31 1020 1019.2      
May 12 01:53 Calm 16.09 Clear CLR 18 16     90%     1019.3 1018.4      
Notice The following observation data may not be complete
May 11 19:53 Calm 16.09 Clear CLR   17      %     1018.6 1017.9      
Jun 11 20:53 Calm 16.09 Partly Cloudy SCT048 SCT080 27 21     71%   28 1019.7 1018.7      
Jun 11 08:33 ENE 8 16.09 Partly Cloudy SCT018 24 21     79%   25 1022.4        
Jun 10 18:53 SSE 8 16.09 Clear CLR 28 17     49%   29 1017.6 1016.8      
Jun 09 15:53 WSW 13 16.09 Clear CLR 28 14     41%   28 1014.2 1013.5      
Jun 09 00:53 Calm 16.09 Clear CLR 18 16     87%     1013.2 1012.4